Find Starlink 2400

NORAD ID: 47817 Int'l Des: 2021-018 Owner: SPXS Country: US Constellation: starlink operational
LEOCIRCULAR

Current View

Loading 3D Globe...

About Starlink 2400

Description loading...

Upcoming Passes

Passes for default location (London). Set your location on the main map for personalized predictions.

Altitude History

Loading altitude history...

Two-Line Element Set

1 47817U 21018AG 26150.60077095 .00002972 00000-0 10752-3 0 9995
2 47817 53.1598 222.1313 0001750 87.3550 272.7652 15.31697833289269
Epoch: May 30, 2026 • Age: 24 hours

Current Status

Altitude 471.2 km
Velocity 7.63 km/s
Sub-Earth Point 25.95°N, 138.94°E
Launch Date Mar 11, 2021
Age 5.2 years
Type internet

Technical Details

Classification Payload
Mass 260.00 kg
Dry Mass 248.00 kg
Total Mass 260.00 kg
Length 0.20 m
Diameter 2.80 m
Span 9.00 m
Shape Box + pan
Manufacturer SPXS
Bus Type Starlink
Phase Status In Orbit
Owner/State SPXS/US

Most Searched